Theta_e
303 303 304 305 305 305 305 305 305 305 305 297 294 296 290 289 286 297 302 305 301 294 287 289 287 284 287 292 291 293 290 289 290 289 289 287 288 286 288 288 287 290 289 288 289 291 285 289 287 289 291 293 296 301 302 304 303 302 298 300 299 295 288 287 285 288 290 293 294 295 295 296 294 293 294 295 292 293 292 290 289 287 286 286 283 281 285
303 304 304 304 304 304 304 304 304 304 303 297 296 292 289 290 290 293 301 304 299 288 278 280 283 285 289 290 288 291 290 289 288 287 289 287 286 285 286 289 293 290 293 291 289 291 284 288 289 286 292 290 299 300 302 303 301 300 298 296 299 290 288 289 283 283 284 286 290 290 291 294 292 292 294 296 296 295 289 287 286 287 288 288 285 280 286
302 302 303 303 303 303 303 303 304 304 304 302 295 288 290 291 293 294 296 300 295 284 286 283 282 284 285 284 283 285 287 290 290 289 287 289 287 286 285 289 292 290 293 288 292 292 289 286 291 290 290 292 295 300 301 303 301 304 303 300 302 292 289 288 283 279 277 277 279 281 284 288 292 294 294 295 295 294 290 288 285 285 288 288 286 286 289
301 301 302 302 302 303 303 303 303 303 304 304 295 292 287 284 280 289 291 294 291 289 290 286 284 282 281 281 282 283 282 287 289 290 288 289 288 287 288 290 291 287 288 286 286 288 291 287 286 288 286 288 290 296 300 302 302 301 300 300 300 289 291 291 290 288 285 287 289 293 294 291 288 290 292 293 295 296 294 291 288 285 287 285 289 290 287
301 301 301 302 302 302 303 303 303 303 303 304 294 290 288 288 284 285 282 289 290 288 288 286 285 281 285 279 282 280 283 286 288 290 284 289 288 287 286 286 284 285 287 285 286 287 288 290 288 286 287 288 292 296 296 300 300 298 299 299 295 287 288 291 292 291 292 290 291 294 295 291 292 291 290 293 292 293 291 289 288 292 286 282 287 290 288
301 301 302 302 302 302 302 302 303 303 303 303 293 285 286 280 285 288 290 284 281 282 284 287 285 287 285 282 285 282 283 283 282 287 288 289 288 284 286 286 285 288 286 287 284 285 285 287 284 288 288 289 290 292 295 295 297 298 298 300 296 288 286 291 291 290 292 291 293 294 294 294 293 292 292 291 292 292 289 290 294 293 288 287 291 291 288
301 301 301 302 302 302 302 302 302 303 302 301 289 283 284 285 286 287 289 282 285 286 287 286 284 284 284 284 284 281 282 282 284 284 285 287 286 286 280 283 285 287 289 287 284 286 283 283 287 286 286 287 287 287 291 295 297 298 297 298 294 292 286 289 291 289 291 290 292 294 293 293 293 292 292 293 292 292 293 293 294 294 292 293 294 293 292
300 301 301 301 301 301 302 302 302 302 302 296 290 287 283 282 282 283 287 285 286 286 285 285 284 281 287 280 282 283 281 281 284 286 284 281 283 287 282 284 286 287 287 287 284 287 289 288 285 288 288 286 288 288 290 289 293 297 295 295 295 293 287 291 290 287 287 290 292 293 293 292 290 291 292 293 293 293 294 294 294 294 294 294 294 292 292
300 300 301 301 301 302 301 302 302 302 302 290 288 286 288 288 288 288 284 280 283 285 284 282 281 280 281 280 281 283 282 281 284 285 286 284 284 285 283 285 285 286 286 285 286 290 291 292 292 292 291 287 291 290 288 295 288 292 293 292 292 293 286 291 289 285 285 288 289 291 292 291 290 289 291 291 291 289 291 291 293 292 291 292 292 290 290
300 300 300 301 301 301 301 301 301 301 301 289 285 285 289 287 288 288 283 278 286 283 283 282 280 276 280 282 283 283 282 284 285 283 286 287 288 288 285 286 286 283 284 284 287 290 292 294 295 296 296 297 295 296 296 295 294 289 291 294 289 289 287 286 286 284 285 288 289 289 289 288 286 287 291 292 293 293 294 294 295 294 295 291 288 290 296
299 300 300 300 300 300 300 301 301 301 295 289 286 286 288 286 285 284 281 277 277 279 281 279 279 281 283 285 283 285 284 284 285 281 280 286 286 288 288 286 284 282 284 288 291 293 294 294 295 298 297 297 295 295 295 295 296 295 293 288 289 291 287 286 288 284 286 287 287 288 285 279 281 294 296 295 292 293 291 291 293 295 296 294 296 296 298
299 299 299 299 299 299 299 299 300 300 298 291 290 289 289 288 284 283 277 272 276 277 277 274 280 281 282 283 283 283 283 283 285 285 282 284 286 288 288 286 285 279 285 292 293 295 297 298 296 296 295 294 294 294 294 292 294 295 296 291 287 288 287 286 287 285 284 285 286 283 278 281 293 297 298 298 297 296 294 294 295 296 296 297 296 297 297
298 298 298 298 298 298 298 298 299 300 299 293 292 289 291 289 286 283 280 273 272 273 272 274 279 281 281 281 282 282 283 284 285 287 286 287 284 287 287 286 285 286 291 291 294 294 289 287 288 289 288 290 290 291 291 291 291 293 295 296 291 286 286 286 285 286 285 284 283 277 280 287 292 295 297 298 298 297 295 293 295 297 297 297 296 297 298
297 298 297 297 297 298 298 298 298 298 299 297 291 290 290 289 284 282 281 272 275 276 278 277 277 277 279 280 281 281 282 282 282 283 284 286 286 285 287 290 290 291 292 295 291 289 285 285 283 284 282 284 284 284 286 289 290 290 291 293 294 290 288 286 284 287 282 283 284 283 287 285 288 289 291 295 292 293 292 288 292 297 298 297 296 297 298
297 297 297 297 297 296 297 297 297 297 298 298 292 290 290 290 288 285 284 279 274 275 276 273 276 279 279 279 281 278 277 278 280 278 281 285 286 287 288 291 292 294 294 291 287 284 283 284 281 278 281 280 274 276 285 282 286 289 291 292 293 293 286 287 285 283 286 283 282 283 282 281 285 292 295 299 299 299 298 294 291 296 298 299 298 297 298
297 297 297 297 297 296 297 297 296 297 297 297 290 289 290 290 287 287 284 280 275 269 274 280 281 280 278 278 281 279 275 276 277 276 276 276 281 284 286 289 292 293 293 290 286 283 281 278 276 277 275 277 280 279 276 284 284 286 287 289 292 293 292 287 285 285 284 283 282 282 280 284 291 291 294 297 299 296 294 289 287 295 297 299 298 297 298
297 297 297 297 297 297 296 296 296 296 296 297 288 288 288 289 288 285 284 282 280 276 283 283 283 282 278 275 277 276 279 275 277 274 272 274 280 280 282 287 290 292 290 288 285 284 282 278 277 273 276 280 278 276 283 282 281 282 286 288 288 288 287 286 283 282 284 284 283 281 285 286 289 293 294 296 296 299 294 283 284 296 297 298 298 297 298
296 297 297 297 297 296 296 296 296 296 296 297 290 285 286 290 289 287 286 284 282 280 282 284 281 278 277 277 276 278 281 278 277 277 278 276 278 279 279 283 285 288 290 286 281 281 279 279 276 274 274 281 283 285 276 282 281 280 281 284 283 284 284 285 282 284 284 285 283 285 285 288 288 291 294 295 298 295 286 281 290 296 298 298 298 298 298
295 295 296 296 297 297 297 295 295 295 295 296 289 286 285 289 289 288 285 284 283 278 284 286 285 282 283 285 281 281 282 282 282 275 271 274 276 278 283 282 288 283 287 283 281 279 280 277 281 279 276 278 283 278 283 281 280 283 284 282 283 284 285 284 285 284 283 284 283 283 287 288 289 289 295 296 293 285 284 295 295 296 297 298 298 297 297
295 296 296 296 295 296 297 297 295 294 295 296 291 282 287 289 289 288 284 279 283 281 283 283 285 281 284 283 281 280 280 280 280 279 273 272 279 283 278 278 280 282 284 286 282 283 280 278 278 278 279 280 282 286 283 282 286 283 283 286 285 284 284 281 283 285 285 284 282 281 279 289 293 292 292 295 290 290 293 292 292 289 291 295 296 298 298
295 295 295 295 295 295 295 296 295 295 294 295 296 284 283 286 289 288 288 285 280 277 280 286 286 286 285 284 284 284 282 280 279 278 279 280 283 281 272 273 278 281 282 286 282 283 281 278 279 277 281 282 283 284 279 280 282 285 287 286 285 288 284 284 285 288 282 283 281 282 289 289 294 295 290 293 293 289 290 289 290 286 287 290 293 294 296
294 294 295 295 295 295 295 296 295 294 294 294 295 283 281 284 288 290 290 289 283 279 283 287 287 286 287 287 287 286 285 285 286 286 282 279 280 281 279 281 280 285 285 285 282 282 282 281 283 280 281 279 284 283 283 280 278 283 286 288 282 290 287 289 285 288 287 286 289 291 289 293 297 298 297 298 296 286 285 290 289 290 290 287 292 294 293
292 293 294 295 295 295 294 295 295 295 294 294 293 281 280 283 286 289 286 281 282 285 286 284 285 286 287 288 289 288 286 289 288 287 286 282 280 281 281 279 280 286 287 288 285 284 283 282 282 282 282 283 282 282 284 283 282 285 283 288 288 289 291 287 289 288 292 292 291 290 287 287 292 293 290 295 297 285 287 289 288 289 288 289 292 292 294
292 292 292 293 294 294 294 295 294 295 295 295 294 283 283 282 285 283 282 284 281 277 280 282 279 278 280 281 284 288 289 288 289 287 289 288 281 281 283 284 285 284 283 286 289 285 283 284 283 284 282 283 285 282 280 280 283 285 286 286 286 286 292 289 287 287 288 285 294 293 291 289 288 292 292 287 290 289 284 286 287 286 285 287 288 288 290
291 291 291 292 292 293 293 293 294 294 295 295 292 291 287 284 284 284 278 272 275 275 273 277 279 283 284 287 288 287 288 289 289 288 288 288 286 283 281 285 285 284 283 286 287 286 285 283 283 282 280 284 286 282 286 283 282 287 284 285 286 286 289 289 289 287 288 289 291 292 293 291 291 291 292 292 290 288 286 285 285 286 284 284 284 285 286
290 290 290 291 292 292 292 293 294 294 294 295 295 284 283 282 283 285 284 283 279 278 274 273 276 284 286 284 282 286 288 289 288 288 288 288 289 288 287 287 286 289 287 285 284 282 282 284 285 284 282 283 288 284 284 287 286 287 287 287 290 287 291 286 288 288 290 292 291 289 288 289 291 289 287 287 288 288 287 285 284 284 286 286 284 282 286
290 290 290 290 291 291 292 292 293 294 294 293 291 286 283 281 285 286 282 280 273 272 275 272 276 278 281 281 284 287 287 288 287 287 287 288 287 288 288 286 285 286 285 284 283 283 282 283 283 282 285 284 285 287 288 287 287 284 284 287 288 289 286 289 289 286 287 287 290 290 287 287 288 288 289 289 288 288 287 285 286 285 286 284 286 286 283
290 290 290 290 290 291 291 292 292 293 293 294 292 287 285 285 286 287 285 283 278 272 272 274 273 273 280 279 283 286 287 287 287 287 286 286 287 286 286 285 285 284 283 282 280 281 281 279 279 285 286 287 285 283 281 284 286 286 287 287 290 290 289 290 287 287 287 290 286 290 293 288 286 293 293 292 290 290 290 289 289 289 289 287 286 286 287
290 290 290 290 290 290 290 291 292 292 293 293 283 283 280 282 286 290 288 287 283 277 274 277 278 275 271 275 284 282 283 286 286 286 286 286 286 286 285 285 284 284 284 284 283 282 281 281 284 283 284 286 286 283 285 283 283 283 287 290 291 294 295 293 293 293 293 289 289 291 290 292 290 289 292 293 291 291 292 292 292 289 287 286 286 287 288
289 290 290 290 290 290 290 290 291 292 293 283 280 276 274 277 283 285 288 286 284 280 276 274 271 274 282 281 279 281 282 284 285 286 286 286 285 285 285 285 284 286 285 283 284 280 282 282 283 286 288 287 284 284 285 284 284 286 290 291 292 292 291 295 297 294 293 290 287 289 291 293 291 290 292 294 294 292 293 293 292 288 286 285 286 285 284
289 289 290 290 290 290 290 291 291 292 292 279 279 275 273 270 277 284 289 287 284 282 279 279 274 280 278 282 283 281 282 284 283 283 284 286 286 286 287 287 286 286 283 284 284 284 284 281 282 284 287 289 288 284 283 284 283 286 288 290 292 292 291 293 295 295 295 288 289 289 289 291 291 290 291 292 291 288 289 289 287 287 286 285 284 283 283
289 289 290 290 290 290 291 291 291 291 285 283 281 278 274 275 279 286 290 287 285 280 277 273 274 273 273 277 280 283 282 282 283 284 285 286 284 287 286 287 285 288 286 284 284 285 283 284 284 284 284 289 290 284 285 284 283 285 287 290 291 292 293 293 292 292 290 290 290 290 289 289 287 289 293 293 292 290 290 288 285 285 284 282 279 278 277
290 289 289 290 290 291 291 291 292 290 284 287 292 294 293 292 292 291 290 284 280 275 278 276 271 275 274 276 283 283 285 283 281 281 280 286 283 286 284 287 287 286 290 286 283 281 285 285 285 283 285 287 285 286 284 283 285 289 288 289 290 291 292 292 292 291 289 287 290 292 291 290 290 290 291 288 289 289 286 283 280 281 281 281 280 280 279
290 290 291 290 290 290 290 291 291 291 291 285 281 283 287 293 292 291 286 282 277 279 280 275 272 272 272 280 274 278 285 281 282 284 280 286 287 286 284 286 286 283 286 283 285 285 285 285 283 284 287 285 285 285 282 285 289 288 285 287 284 284 284 286 285 289 284 282 280 281 282 283 284 285 287 287 285 280 281 281 282 282 279 280 278 279 278
289 290 290 290 290 290 290 290 285 282 280 278 279 279 286 293 292 291 287 279 272 273 275 275 276 272 272 273 272 275 282 281 279 284 282 285 289 284 285 283 285 281 283 289 284 284 283 284 287 283 281 286 284 280 283 286 288 285 283 282 279 283 284 284 284 280 279 280 281 281 281 283 284 287 288 287 282 280 282 281 283 284 282 279 279 277 277
290 290 290 290 290 289 285 286 281 278 278 280 276 286 292 293 293 287 284 281 277 272 273 274 275 271 272 269 270 277 286 281 284 284 285 285 284 287 286 285 280 283 288 285 281 284 282 287 286 280 286 283 281 284 286 288 287 285 284 285 281 285 286 287 283 277 279 280 278 281 283 284 284 286 285 282 280 278 280 281 279 280 281 279 277 277 275
289 289 289 289 285 280 279 278 282 281 278 281 285 292 292 289 285 284 282 280 282 282 275 273 273 273 274 274 276 280 283 277 285 283 284 282 282 285 284 283 280 285 284 282 283 282 285 290 285 282 283 281 284 288 277 270 276 282 282 277 274 273 274 274 275 277 279 280 281 280 280 282 283 282 282 282 280 278 279 282 282 282 281 280 278 278 277
288 288 279 275 275 274 273 275 274 278 291 290 290 280 275 280 275 278 279 276 280 280 276 276 272 275 275 273 271 283 282 279 285 281 283 286 283 281 286 283 284 284 277 281 284 289 285 283 282 281 283 282 275 271 270 270 269 268 269 270 270 271 272 272 273 279 282 281 281 281 280 280 282 281 283 283 280 280 280 279 279 278 279 279 278 277 275
287 278 275 275 272 271 271 273 284 289 285 284 281 275 272 273 273 272 272 275 277 273 277 274 272 275 274 272 274 281 280 278 278 281 278 286 283 279 284 279 283 283 279 280 282 289 281 278 282 282 282 279 275 272 269 269 268 267 268 268 269 269 270 271 272 275 282 284 280 278 280 283 284 283 280 280 276 273 272 273 274 275 277 277 276 275 275
273 272 272 269 269 272 281 285 289 285 280 273 271 272 268 272 271 268 274 270 271 273 274 270 275 274 275 273 272 273 284 279 274 274 278 283 287 281 284 283 284 281 277 278 281 287 282 277 280 281 281 282 277 267 267 266 267 266 266 267 268 269 270 270 271 271 272 273 274 275 275 275 277 280 281 279 276 274 271 271 271 273 274 274 274 274 273
273 272 271 270 273 274 277 279 276 272 272 269 268 268 268 268 269 269 270 268 268 269 273 271 272 271 275 276 276 272 281 282 280 280 280 279 285 285 282 279 286 280 279 279 282 282 281 279 280 279 283 274 265 264 265 264 264 265 265 266 267 268 269 270 269 269 271 272 272 271 271 272 275 277 277 277 276 273 270 270 271 271 272 272 272 272 272
274 273 273 276 279 279 276 273 270 269 267 269 267 263 264 266 270 268 269 265 266 267 268 270 267 269 269 273 272 274 274 281 280 279 280 278 285 282 281 279 278 279 275 281 285 282 280 277 276 280 268 260 263 262 263 263 264 263 265 266 266 267 267 268 268 268 269 270 269 268 269 269 269 270 272 273 272 271 271 271 271 271 270 271 271 271 271
287 285 282 276 275 271 270 265 268 266 261 260 261 261 264 263 265 264 265 269 269 266 267 271 269 272 273 274 271 274 273 282 278 277 277 278 281 279 277 277 278 276 279 280 281 280 279 275 277 274 257 260 259 261 260 262 262 264 264 266 265 266 267 267 266 266 266 267 266 266 266 267 266 267 269 269 269 268 268 269 269 269 269 268 268 268 267
282 278 271 268 265 264 267 260 268 264 261 261 261 258 259 258 262 262 262 264 265 264 267 264 265 264 263 271 269 273 276 278 280 277 275 276 276 275 275 275 276 278 279 279 279 277 280 274 265 259 259 259 259 259 259 260 260 263 263 265 266 266 267 266 266 265 265 265 266 266 266 266 266 266 266 267 267 266 265 266 267 267 267 266 266 265 266
272 267 263 263 261 264 264 260 264 260 256 259 264 259 260 259 261 262 262 266 264 264 267 266 265 264 263 266 269 270 275 273 279 274 273 274 273 273 273 274 273 273 277 274 275 273 273 269 259 259 257 257 257 257 259 259 260 260 263 263 264 265 265 264 264 264 264 264 264 265 264 264 263 264 264 264 265 266 266 265 266 266 266 265 265 265 265
264 262 261 260 260 261 259 255 257 256 260 262 260 261 261 262 262 262 265 266 264 265 264 264 264 264 262 265 266 270 271 270 271 271 271 271 272 271 273 275 275 273 272 274 272 275 274 259 256 257 256 256 257 257 257 258 259 260 260 261 262 263 263 263 263 263 263 264 263 263 262 261 261 262 262 263 264 264 264 265 265 265 265 264 264 264 265
265 265 263 261 259 259 261 256 258 258 259 260 261 262 263 264 265 265 266 265 263 265 265 265 264 263 261 264 268 271 270 271 270 272 273 270 269 271 274 272 271 271 273 271 272 269 258 257 256 256 255 255 256 256 256 257 257 258 259 260 261 262 262 262 261 261 261 262 261 261 261 261 262 262 262 261 261 262 262 262 262 263 263 262 262 262 263
261 263 262 259 257 259 258 258 260 260 260 260 261 263 265 265 263 262 265 266 265 264 261 262 261 264 263 266 267 268 270 270 270 270 272 271 272 270 269 268 266 264 262 264 261 254 255 255 255 255 255 256 255 255 256 256 256 257 257 257 259 260 261 261 261 261 261 260 260 260 260 260 260 260 259 259 259 259 260 261 262 263 263 263 263 263 263
260 256 257 256 257 258 259 260 259 259 260 261 263 264 263 262 262 263 265 264 262 261 262 260 261 263 265 271 268 269 267 270 268 268 269 267 266 266 266 267 266 264 258 255 256 255 254 254 255 254 255 254 255 255 255 256 256 256 256 256 257 259 260 260 261 261 261 261 260 260 260 260 260 260 259 259 258 258 259 259 260 260 261 261 261 261 261
259 257 257 255 257 258 258 258 258 258 259 260 260 260 261 261 261 262 264 261 261 261 261 264 264 262 266 268 267 267 266 267 266 267 266 262 260 261 263 264 261 259 256 254 254 254 254 253 255 255 254 254 255 255 255 255 256 256 256 257 257 258 259 259 260 261 261 261 261 260 260 260 259 259 258 257 257 258 258 257 258 258 258 259 259 259 259
259 258 257 258 256 255 255 257 257 257 258 259 259 259 260 260 260 261 263 261 260 258 260 263 265 264 265 266 265 264 266 270 265 261 260 258 258 259 261 260 257 254 255 254 254 253 253 253 253 253 254 254 254 255 255 255 255 256 256 257 258 258 259 260 260 260 261 261 261 260 260 259 259 259 259 259 259 259 258 257 257 257 257 257 257 257 257
258 257 255 257 256 255 255 256 256 257 257 258 257 258 258 258 261 261 263 260 259 260 263 264 264 263 263 262 263 265 267 266 263 263 259 257 257 256 255 254 254 253 253 254 253 253 253 253 253 252 252 253 254 254 255 255 255 256 256 257 258 259 259 260 260 260 261 261 261 261 262 262 262 262 262 262 262 260 257 256 257 257 257 256 256 256 256
Wind_Speed
21 21 20 19 19 19 18 18 19 18 11 4 1 0 4 4 5 2 6 3 6 6 5 5 3 3 2 4 5 6 3 4 4 4 3 2 1 2 2 2 0 1 3 2 5 9 4 12 10 7 11 12 13 8 15 13 10 14 8 7 5 7 4 8 3 6 3 3 1 5 4 5 3 2 1 10 13 12 11 10 5 9 4 9 5 10 5
21 21 20 19 18 18 18 17 18 17 14 2 1 7 4 5 6 3 3 4 1 3 4 6 5 2 2 4 4 2 3 4 4 2 2 2 1 2 2 2 1 2 1 3 10 7 4 2 5 4 5 3 8 6 11 16 9 14 8 11 9 4 3 9 7 6 1 2 2 2 3 3 5 5 7 8 10 12 2 3 2 7 14 12 11 14 12
19 19 18 18 18 18 18 18 17 17 17 7 1 4 4 7 4 5 3 4 4 4 1 7 6 4 5 4 4 2 3 0 5 6 4 2 2 2 2 2 3 4 3 2 1 2 1 3 3 1 2 4 2 8 8 12 11 12 6 11 8 8 5 12 13 14 12 12 15 14 10 13 7 8 15 17 20 19 12 15 7 14 12 14 11 14 5
17 17 17 18 18 18 19 18 18 18 17 14 5 4 3 1 7 1 4 4 4 3 1 3 3 5 3 5 1 3 3 2 3 7 1 2 2 2 5 2 6 5 5 4 2 3 2 5 3 3 1 2 1 2 6 6 10 14 9 7 9 3 4 10 11 17 19 17 11 12 22 16 16 14 19 20 21 23 17 9 10 16 10 11 13 16 4
17 16 16 17 18 19 19 19 19 18 18 14 3 4 2 3 5 5 5 3 2 2 3 2 2 5 4 4 1 2 3 3 1 2 1 1 3 2 1 4 4 1 4 3 3 2 3 3 4 3 2 2 1 2 6 2 5 10 7 6 4 2 7 16 14 13 7 2 5 8 13 18 19 22 22 17 12 10 13 14 18 12 1 6 6 13 14
15 16 17 18 17 18 18 19 19 20 19 17 5 5 4 4 1 4 2 2 7 3 2 1 1 1 4 3 3 5 5 2 3 1 0 5 3 5 2 2 2 9 7 6 3 2 3 4 5 3 1 1 2 2 2 2 4 8 4 7 6 6 9 14 15 15 8 4 10 12 14 17 19 20 19 22 19 19 20 20 19 12 11 17 17 11 11
15 15 15 16 16 17 17 18 19 19 19 11 6 6 2 3 2 2 1 2 4 3 4 4 3 2 4 2 5 5 6 5 2 3 2 4 3 3 4 6 8 8 8 4 4 4 4 3 1 3 4 5 2 1 1 3 4 5 5 8 2 5 7 5 12 14 11 5 9 14 17 14 14 17 20 22 24 24 25 24 23 20 17 21 24 20 25
12 13 14 14 15 16 16 17 18 19 16 7 10 6 4 4 1 2 2 3 5 4 2 2 4 5 1 2 2 5 5 5 1 0 3 3 3 1 3 7 7 8 8 7 7 9 5 3 4 3 3 0 1 3 3 2 1 4 7 4 2 8 7 13 10 11 10 6 7 11 15 16 15 16 17 19 18 19 23 22 20 17 17 18 21 22 23
11 11 12 13 15 15 16 17 18 19 11 7 6 3 4 0 1 0 5 4 2 3 2 4 4 2 1 3 1 4 4 5 3 2 3 4 4 4 3 5 3 0 3 4 6 8 10 9 7 6 7 6 5 3 1 2 2 1 4 3 0 4 2 9 8 9 9 7 10 16 16 17 18 18 18 18 19 19 17 18 19 19 23 27 23 18 18
9 10 11 12 14 15 16 16 18 17 11 6 2 4 3 2 2 2 2 4 1 4 0 2 5 1 1 2 0 2 4 5 5 1 2 2 1 3 6 7 7 3 5 8 10 9 11 12 9 10 7 3 4 2 3 4 2 0 4 6 7 6 5 8 9 10 10 12 12 15 12 10 13 19 23 26 26 25 25 24 24 23 23 20 17 21 26
7 8 9 10 11 13 15 17 17 17 9 6 4 3 3 4 3 5 4 6 3 3 5 2 5 2 2 3 1 2 1 5 5 5 1 1 1 5 8 6 6 3 9 8 2 2 2 4 5 6 5 2 1 3 4 3 2 2 2 2 2 10 6 4 5 10 9 12 11 8 10 17 18 19 29 31 30 29 26 24 24 22 17 15 20 22 19
6 7 8 7 9 12 14 15 16 17 10 4 4 4 2 1 2 3 4 5 1 3 4 2 4 1 3 4 3 1 3 3 1 2 2 1 3 5 6 5 5 1 3 5 5 4 6 5 6 5 4 3 1 2 3 8 8 4 4 3 2 6 9 7 4 5 5 9 9 11 18 17 11 7 13 21 25 23 24 23 22 19 18 18 22 25 22
5 6 5 6 9 10 11 12 15 15 12 7 6 6 4 2 3 2 3 5 2 1 3 1 2 3 4 4 4 2 2 2 2 2 1 0 2 1 3 4 5 3 3 5 7 10 6 5 4 4 2 1 1 2 6 9 11 7 5 5 5 3 7 3 4 2 3 8 12 10 12 2 2 11 15 14 7 11 13 17 20 24 29 31 31 29 16
5 4 2 3 7 7 8 10 11 13 14 9 6 4 3 5 4 4 2 3 3 0 2 3 5 3 3 2 0 3 4 6 5 4 3 0 0 2 2 1 4 3 4 7 7 6 5 3 3 4 1 2 0 3 6 11 12 11 9 8 8 7 2 3 4 5 7 5 11 10 4 4 1 4 9 16 21 23 24 24 29 30 19 16 18 22 19
5 2 2 5 4 4 6 8 9 11 12 10 6 5 5 6 3 2 0 4 2 1 1 2 1 3 4 2 1 1 4 2 6 3 2 1 0 1 2 3 2 5 6 6 1 2 4 3 2 4 3 5 4 5 1 1 2 6 11 9 10 9 8 2 4 4 2 7 8 5 1 9 10 13 6 22 23 21 18 13 17 6 16 19 24 28 27
10 8 8 7 8 4 6 6 7 8 10 10 6 4 4 3 3 4 3 2 3 2 2 4 2 3 1 0 0 1 1 2 1 0 3 1 0 3 4 3 2 3 3 3 2 2 2 4 4 6 5 6 3 1 2 2 2 1 2 6 10 9 10 4 6 1 3 4 10 9 11 13 11 15 15 19 14 8 11 4 19 13 19 24 25 28 26
9 9 10 7 7 6 4 5 5 6 8 8 4 4 3 2 2 2 3 3 4 1 0 2 4 1 2 3 4 3 0 1 2 1 2 1 0 1 4 3 1 1 2 2 1 1 0 0 1 3 2 3 3 5 5 3 2 1 2 3 7 9 8 6 6 4 3 4 6 9 4 9 5 9 13 11 14 16 13 11 16 26 20 20 23 29 28
9 9 9 9 9 6 4 2 4 5 5 7 6 3 2 3 3 3 4 3 2 1 3 4 1 2 1 3 1 2 1 1 2 0 1 2 0 0 2 1 0 3 2 5 2 2 2 3 5 4 6 3 4 3 6 5 4 5 5 7 5 5 3 7 11 9 8 9 4 3 6 5 3 9 12 15 15 16 16 18 25 14 15 20 23 28 25
9 8 8 8 9 8 6 4 4 4 4 7 5 5 2 2 4 5 4 2 2 3 2 5 1 2 1 1 0 1 1 1 0 2 2 4 1 3 3 3 3 2 0 4 3 3 4 4 3 1 1 1 1 6 3 6 5 2 4 3 0 2 2 1 4 9 9 6 7 7 7 7 6 2 17 17 14 12 17 23 5 11 19 18 18 19 14
12 9 9 5 3 7 9 9 4 2 5 8 6 2 0 2 3 5 4 2 1 3 3 4 3 2 2 2 2 2 3 4 1 0 2 1 4 7 3 1 4 3 2 3 2 2 3 6 6 2 5 5 5 1 4 5 2 5 3 7 7 7 6 6 9 4 0 1 3 1 9 7 15 11 10 13 16 18 8 1 2 1 6 14 15 18 18
14 12 9 7 5 4 6 7 8 5 1 7 6 3 2 1 3 3 4 4 2 1 4 2 4 8 5 5 3 1 0 0 3 1 1 1 2 2 1 3 3 0 4 4 6 5 2 3 4 2 2 4 4 2 4 3 4 5 7 5 5 5 6 3 4 4 6 9 10 10 8 2 15 22 15 16 6 3 8 5 3 2 5 6 10 10 13
12 11 11 11 9 3 3 7 6 3 1 4 8 4 2 1 1 3 4 5 2 3 2 3 2 5 8 6 4 1 1 3 3 0 2 3 3 2 2 6 4 2 1 1 1 1 2 2 1 3 6 3 2 9 5 7 7 3 2 5 8 9 10 8 8 5 9 10 13 6 2 10 16 18 9 15 11 2 4 7 5 5 7 3 8 12 11
10 10 10 8 7 9 5 5 6 6 3 3 6 2 3 1 1 2 4 1 1 1 1 2 4 8 6 9 2 0 2 4 3 4 1 3 5 4 6 3 6 2 2 1 4 3 4 4 6 2 3 3 4 5 8 7 7 5 6 8 9 4 7 3 1 6 7 12 7 3 4 3 9 6 2 8 14 3 1 2 3 5 4 8 8 8 11
8 7 8 8 6 4 4 8 4 7 5 3 4 3 0 2 3 3 4 2 1 4 4 4 1 7 4 3 2 7 10 11 6 1 2 0 7 9 4 6 2 2 3 3 3 2 4 2 4 2 8 4 4 7 7 7 12 4 5 6 3 2 6 6 6 1 5 10 17 20 13 7 7 8 8 4 4 3 1 2 2 3 3 5 7 5 7
7 6 6 6 6 6 3 2 5 6 8 7 0 3 3 2 0 4 3 1 1 3 4 4 9 6 2 3 6 6 7 2 1 3 5 9 12 13 16 5 4 2 6 5 4 5 3 2 4 2 7 4 5 10 6 10 8 8 9 4 3 7 5 5 9 5 9 19 6 6 9 9 10 8 8 8 5 2 2 3 2 3 3 2 3 0 4
7 6 6 6 6 6 6 6 4 1 5 11 4 3 3 4 1 4 5 3 2 2 3 7 6 3 3 3 6 7 4 9 12 14 15 17 16 16 17 7 7 9 7 4 4 5 6 6 3 5 6 6 7 9 8 10 10 6 13 13 10 3 7 5 5 9 11 18 12 10 6 7 12 9 5 4 4 4 3 1 0 1 2 0 1 1 5
7 7 7 6 6 6 7 7 7 7 4 4 3 1 2 1 4 8 6 5 3 4 3 8 3 4 5 9 4 2 4 8 8 11 13 14 16 16 15 14 12 11 9 8 4 5 3 6 6 11 8 7 2 8 8 8 8 4 5 4 5 7 9 7 7 8 13 17 18 8 10 9 4 5 7 7 6 6 4 1 2 1 3 3 2 0 1
10 8 8 8 8 8 7 8 8 8 7 5 2 3 3 3 5 7 6 7 7 6 3 7 4 3 7 16 10 10 8 5 8 11 12 13 14 15 15 17 14 11 9 8 10 8 9 10 15 10 7 7 8 8 3 3 4 8 11 9 8 13 12 10 10 12 19 8 4 8 9 5 5 9 11 11 7 6 8 9 8 9 9 7 8 5 1
10 11 10 9 10 10 9 8 9 8 8 2 3 1 1 2 4 7 7 6 5 3 4 8 6 3 5 4 6 4 3 7 11 11 13 12 13 14 16 18 16 13 10 8 8 8 9 12 9 9 8 3 6 8 7 11 11 14 13 10 13 12 11 14 15 16 18 5 5 7 7 10 8 8 9 11 9 10 12 12 11 8 7 7 8 8 9
9 10 11 10 11 11 11 10 9 9 3 5 2 2 1 3 3 7 7 5 4 2 3 4 7 4 1 2 6 8 11 11 11 12 14 13 13 14 15 16 15 13 10 9 10 12 12 9 9 7 9 1 3 2 10 8 12 13 13 13 14 10 7 13 17 16 14 6 5 6 10 11 8 10 12 14 13 12 12 14 13 8 6 6 6 4 3
10 10 11 12 12 12 12 12 9 10 4 3 3 1 1 3 4 4 7 5 3 4 2 2 8 7 9 7 9 12 12 9 10 13 15 16 14 15 14 12 12 10 11 12 11 15 8 11 9 12 8 10 6 4 9 9 13 13 13 11 14 15 13 15 13 12 12 4 6 4 3 7 6 4 7 9 10 5 4 4 3 6 7 6 5 4 2
11 11 12 12 13 13 13 13 13 10 4 6 7 6 6 6 4 8 8 7 7 3 1 3 5 3 7 3 3 6 12 16 15 10 9 8 13 13 13 14 13 13 12 12 12 9 13 11 13 12 11 11 10 7 9 12 15 17 6 13 13 13 14 14 10 11 6 5 4 4 7 8 4 8 11 10 12 9 10 5 3 4 5 4 3 4 3
10 11 12 12 13 14 14 15 15 11 4 7 12 14 10 7 18 14 11 8 4 1 2 2 5 3 4 5 5 3 4 2 5 8 11 9 11 9 12 12 12 10 12 12 9 8 9 12 11 15 12 6 6 7 10 14 16 19 11 12 11 12 14 12 12 8 5 4 8 14 15 11 9 12 12 6 6 7 5 5 4 6 7 6 5 4 4
11 11 13 13 14 14 15 15 15 16 13 7 6 8 7 12 18 22 9 5 2 1 2 3 3 6 7 3 10 4 6 4 5 7 8 8 8 9 10 9 12 11 9 15 11 8 8 9 12 13 8 10 3 7 13 15 21 17 6 8 6 6 6 6 6 8 3 2 1 3 4 4 6 5 2 4 3 2 5 7 8 8 5 6 5 4 4
12 13 13 14 14 14 15 14 7 5 6 5 4 3 5 15 17 19 13 5 3 2 2 4 3 6 5 2 10 7 3 4 10 7 8 5 9 10 8 9 8 12 10 9 9 11 10 11 9 11 16 6 9 13 12 14 19 8 6 5 4 5 3 4 4 3 1 0 0 2 2 2 3 6 9 7 5 4 7 6 7 10 8 5 6 5 5
12 13 14 14 15 13 6 6 4 3 5 7 5 5 13 15 18 11 8 3 4 2 3 4 4 7 4 9 10 3 5 12 11 4 8 1 5 7 8 8 13 13 5 9 13 13 14 9 9 15 8 12 15 9 16 18 13 10 12 11 10 9 8 10 8 3 1 0 2 1 1 2 5 8 5 3 2 2 4 6 3 3 7 8 7 5 4
13 13 13 11 3 2 3 4 2 5 5 5 6 7 14 15 9 4 2 1 3 0 5 3 8 9 8 8 2 4 2 9 3 7 4 6 7 4 8 8 13 5 6 10 13 15 13 10 12 12 15 14 13 14 4 6 1 5 6 2 2 2 3 5 4 5 3 2 2 1 1 4 5 3 3 5 4 2 4 8 11 12 13 14 12 11 10
11 10 0 2 2 1 1 3 3 4 11 17 14 7 3 3 3 2 3 4 4 6 5 5 11 6 1 3 9 2 2 9 4 7 5 4 5 5 5 6 8 6 11 12 13 8 5 7 11 15 14 7 1 2 3 2 1 2 4 4 4 4 4 3 1 5 4 0 3 3 3 3 6 6 7 7 5 6 6 2 0 0 1 5 7 8 10
3 1 1 1 2 3 3 2 1 7 7 4 1 2 1 1 2 3 4 3 2 6 5 7 9 8 10 11 10 2 8 6 7 7 11 6 7 5 5 11 3 6 6 5 7 12 10 4 6 8 14 6 6 4 4 3 3 3 3 4 4 4 4 3 3 3 7 7 3 2 3 6 7 6 3 3 1 1 2 1 2 2 4 7 9 8 9
2 1 2 2 4 3 0 1 2 6 2 2 0 1 2 1 4 3 1 2 2 2 2 6 2 5 10 14 11 11 6 8 13 13 12 8 1 5 2 4 2 4 7 10 5 8 11 9 7 9 13 10 7 4 3 4 2 2 4 4 4 4 3 3 2 3 3 3 1 0 2 5 6 5 4 4 4 4 3 4 3 4 5 6 7 9 9
1 1 1 2 1 0 1 1 1 1 1 1 1 0 1 1 2 1 1 3 3 2 0 2 2 3 2 3 5 8 0 1 4 1 3 8 1 3 4 5 2 5 6 8 2 6 5 5 6 11 12 3 4 4 4 4 2 1 3 5 4 3 3 2 2 3 2 2 4 4 4 5 4 2 2 4 4 5 5 5 5 5 7 8 9 7 8
2 2 2 1 1 0 1 2 1 1 1 0 1 1 1 1 1 1 2 3 3 1 4 0 3 2 4 2 3 3 4 3 2 3 4 8 5 4 3 1 0 5 5 2 6 3 4 8 4 8 1 4 4 6 6 5 4 4 5 5 5 4 2 1 2 4 4 4 4 5 5 7 8 7 4 6 7 7 7 8 10 8 8 8 9 9 9
8 7 1 1 0 1 0 2 2 1 2 1 1 0 0 0 1 3 2 0 1 1 2 2 0 4 7 3 6 7 6 1 2 4 4 4 2 0 3 2 2 5 4 2 3 4 7 7 9 7 4 4 6 6 6 6 7 6 5 5 4 4 1 2 4 4 5 6 6 6 7 8 9 7 6 7 11 12 9 8 8 10 9 9 9 9 8
3 2 2 0 1 2 0 1 1 2 1 1 1 2 0 1 2 1 1 2 1 3 1 3 5 7 6 3 4 3 3 5 6 3 4 2 2 3 2 4 4 2 3 1 2 7 10 3 2 3 3 5 5 7 7 7 7 6 5 5 5 3 1 4 5 6 7 6 8 8 8 9 9 9 9 8 9 11 7 9 9 10 11 11 11 10 9
3 1 2 1 1 2 1 0 1 1 2 1 1 1 1 3 1 0 3 1 1 4 4 4 4 3 9 7 4 6 4 4 0 3 3 0 2 3 3 3 0 0 3 4 1 3 2 4 3 2 7 7 8 9 8 7 7 6 7 4 4 4 4 4 5 6 6 6 7 9 9 9 9 10 10 9 8 7 10 11 8 11 11 12 11 11 9
3 2 2 4 3 3 2 1 1 1 1 0 1 1 2 4 3 7 3 2 4 5 6 5 4 5 9 6 5 3 1 1 3 3 1 1 2 3 2 3 0 0 0 3 5 10 6 3 4 4 7 7 7 8 8 7 7 6 6 4 4 4 5 5 5 6 7 7 7 9 8 8 12 13 12 10 9 10 9 9 8 9 11 13 13 11 9
3 2 2 2 3 1 1 2 0 1 1 1 3 3 4 6 6 7 5 2 7 6 7 5 6 7 6 4 4 4 3 2 3 2 1 1 3 2 2 2 3 3 4 6 7 1 2 2 4 5 5 6 7 7 7 7 7 7 7 5 5 5 4 5 6 8 7 8 10 10 8 9 10 9 12 14 12 12 11 10 10 9 9 11 10 11 12
4 0 2 4 1 0 3 1 1 2 1 4 3 3 4 3 5 7 5 3 3 4 5 6 6 4 5 6 4 5 2 2 2 2 0 2 1 1 1 2 2 2 2 3 1 4 2 4 4 5 5 5 6 6 6 7 7 8 8 8 6 6 6 6 7 8 8 9 10 9 9 9 9 10 12 12 11 12 12 12 9 8 10 12 12 12 11
4 3 3 2 1 1 1 1 3 3 2 3 2 3 4 5 6 7 5 2 4 6 4 4 4 3 5 3 4 3 2 1 2 1 1 3 1 2 1 4 2 3 1 2 2 2 3 5 4 5 6 6 6 6 5 5 6 7 8 8 7 6 6 8 9 10 10 9 9 10 9 8 8 10 10 11 13 11 9 9 12 15 14 16 17 17 15
5 5 5 4 3 1 2 1 2 3 4 4 3 4 3 5 6 4 1 4 3 6 6 6 5 4 5 2 2 1 1 0 0 2 2 3 2 2 1 4 2 3 2 2 2 3 4 5 5 5 7 8 8 7 7 7 7 7 7 7 8 9 9 10 11 11 12 12 13 13 12 9 8 9 11 12 10 9 9 11 10 11 13 13 11 13 14
2 5 2 1 1 1 3 1 2 4 7 7 7 7 5 6 5 5 4 5 7 5 4 3 2 3 3 1 1 1 1 1 2 4 2 1 2 2 1 2 1 1 2 1 2 3 4 5 5 5 6 7 8 9 7 8 8 9 8 9 10 9 10 11 12 12 14 15 15 15 13 12 10 10 10 11 12 12 14 12 10 9 10 10 10 12 13
3 4 1 1 2 2 0 4 3 6 6 7 6 4 3 6 5 7 5 5 5 2 2 1 1 2 0 1 1 2 2 1 2 2 3 2 2 2 2 1 2 2 4 4 3 4 4 4 5 6 5 5 6 7 7 8 8 9 10 10 10 11 12 12 12 11 12 11 11 12 13 11 10 10 10 11 12 15 16 9 7 9 10 8 9 12 12
Wind_Direction
70 67 62 57 54 52 48 45 45 40 34 68 304 61 67 75 85 78 70 51 136 148 87 111 111 113 180 113 101 119 106 123 169 126 191 96 120 101 106 200 99 291 117 91 140 166 173 177 195 175 198 190 182 129 177 193 199 192 204 186 194 55 138 128 39 32 358 356 313 69 39 163 240 321 17 174 185 185 195 198 175 194 181 219 228 242 264
58 59 57 54 52 49 46 42 40 43 47 109 256 86 96 85 107 85 23 58 104 157 140 152 147 154 66 112 137 173 140 133 136 111 159 126 142 125 142 49 349 114 67 138 159 173 147 244 178 206 205 210 172 145 166 189 206 187 191 189 162 191 257 147 153 137 130 20 7 50 348 165 201 185 187 206 190 189 178 102 101 199 209 205 194 235 247
54 53 51 49 46 44 43 39 35 30 26 31 126 104 130 109 53 52 19 18 44 101 133 124 138 161 131 116 111 70 51 181 146 135 150 114 139 106 54 160 150 71 16 42 91 98 109 131 225 119 196 204 155 162 158 185 203 212 195 198 157 192 168 164 175 171 173 188 187 181 165 182 186 199 190 199 190 187 163 205 174 219 210 192 205 239 239
51 51 49 44 41 39 37 36 30 25 20 10 72 90 83 117 118 105 52 2 30 63 126 75 117 131 103 90 193 82 78 9 23 109 81 136 135 99 130 116 116 92 89 70 39 193 62 94 187 126 239 263 350 89 129 166 206 212 194 184 157 176 180 220 206 192 195 195 195 196 172 167 189 190 190 196 201 193 194 188 200 217 209 195 217 234 266
45 45 46 45 41 35 32 30 27 21 12 11 112 46 92 80 86 146 144 69 8 49 27 42 65 159 155 126 163 77 125 150 111 153 101 236 139 90 130 165 106 148 98 114 91 123 117 77 89 175 144 275 240 109 104 98 226 221 201 206 126 102 190 215 223 234 231 94 93 104 155 172 187 186 198 196 188 189 197 200 217 210 157 286 240 237 240
45 45 46 43 38 33 28 26 24 16 7 358 72 52 17 81 357 60 101 125 187 147 254 130 114 326 133 155 123 163 141 137 146 34 132 153 144 111 337 103 167 165 160 147 106 123 125 148 166 176 162 86 335 4 43 135 164 170 210 181 179 151 207 211 211 228 229 132 145 157 179 189 188 187 177 186 186 188 196 212 220 191 201 228 228 215 234
42 41 41 41 40 35 30 26 22 17 5 8 81 81 339 103 109 79 58 76 107 155 139 144 149 72 123 119 143 167 163 163 182 155 145 138 211 131 160 202 188 163 149 126 137 145 129 200 210 154 186 165 137 144 341 279 130 177 211 189 189 139 234 199 206 225 223 209 185 166 175 190 193 193 189 186 185 191 196 208 212 206 213 221 232 216 223
40 39 40 42 42 40 36 28 22 15 9 28 61 43 82 8 58 134 44 54 123 143 99 127 103 113 155 112 224 149 162 175 185 36 126 165 224 154 165 184 187 162 158 145 157 184 159 146 160 196 110 266 107 181 168 169 69 182 216 176 249 169 219 183 194 213 224 221 209 182 180 181 192 193 196 192 192 198 202 207 213 215 233 240 241 239 241
43 42 44 46 47 46 41 37 25 16 18 43 52 31 44 157 197 159 109 59 129 107 117 102 123 75 6 99 278 114 169 186 173 203 170 149 175 184 201 108 122 135 148 185 200 178 161 137 166 157 166 170 214 138 285 79 137 212 219 191 285 185 252 168 184 196 216 207 199 192 186 187 189 191 192 191 192 202 206 211 208 197 211 221 232 243 251
44 47 47 50 53 50 49 44 35 27 33 89 62 48 322 20 310 85 97 83 111 140 52 97 86 35 265 133 264 111 201 199 163 223 287 208 190 149 121 144 128 191 180 212 214 197 185 181 164 162 172 120 59 63 96 78 62 201 233 182 181 177 177 177 173 200 210 199 191 188 184 185 203 199 190 192 197 200 204 212 209 207 206 214 217 232 233
49 50 51 53 55 56 54 50 47 40 47 60 71 42 360 34 351 357 46 94 358 71 122 47 93 224 130 106 40 16 156 168 161 144 306 117 281 133 139 144 137 181 209 222 224 49 36 41 62 76 120 125 148 328 325 303 210 205 286 324 225 170 173 183 182 201 203 178 184 164 171 203 210 200 197 190 195 198 203 210 212 213 206 216 221 231 234
54 59 58 55 57 57 53 52 53 55 58 57 99 83 344 354 70 66 78 101 145 5 96 177 158 337 72 12 68 69 29 52 90 140 150 228 212 158 146 171 153 174 253 152 162 154 95 70 74 62 76 126 132 154 183 262 266 214 200 197 286 229 177 185 174 197 185 144 142 182 212 211 222 209 193 198 200 196 204 215 214 213 215 228 238 239 235
59 60 63 57 60 57 57 55 54 57 65 54 67 70 338 38 104 85 106 105 96 48 77 276 14 56 39 50 38 1 22 355 64 53 66 52 338 154 172 162 177 223 184 146 124 116 120 136 103 114 72 56 42 354 248 249 259 256 223 208 221 228 210 163 191 151 73 163 173 194 213 223 33 130 174 188 184 209 210 235 229 215 211 212 223 232 231
80 70 28 56 66 62 66 65 57 59 58 64 71 52 15 23 57 39 57 96 76 207 144 17 18 26 45 54 125 332 20 11 350 43 33 287 125 237 296 123 200 188 113 119 109 105 62 66 85 115 329 66 219 264 234 226 234 233 233 211 200 221 243 244 210 181 184 171 185 205 36 7 228 132 168 154 190 196 192 208 223 218 214 217 237 243 237
62 81 32 43 54 61 67 64 64 58 63 77 73 51 49 29 56 101 86 82 125 317 53 127 233 152 144 175 113 33 35 330 39 326 276 319 48 232 206 243 242 120 124 101 134 55 145 152 142 122 174 145 185 248 142 261 236 232 224 204 187 189 207 197 213 230 171 164 185 219 267 234 217 217 182 195 201 197 199 209 254 180 201 208 221 231 228
42 45 26 23 27 65 72 65 64 65 69 62 67 69 42 67 69 76 85 119 105 37 300 210 178 87 69 118 166 159 205 71 162 173 344 347 269 324 303 267 278 95 69 85 107 107 148 118 192 169 192 187 196 155 305 242 269 300 34 182 181 190 197 197 214 206 158 232 195 194 206 229 214 199 187 197 192 139 88 166 250 219 194 206 215 229 230
40 38 36 20 42 24 82 101 88 75 61 59 81 64 37 5 71 84 56 30 73 186 212 35 4 121 70 350 14 23 130 166 168 307 327 8 215 247 313 316 340 111 141 75 46 113 282 302 202 162 225 158 136 196 205 174 218 16 18 107 170 185 197 169 217 235 248 208 213 221 206 233 231 167 196 176 116 118 114 202 242 236 192 203 206 225 226
42 39 38 42 31 27 358 99 106 82 85 83 81 79 40 19 67 67 48 55 82 325 298 307 108 33 124 177 147 258 34 8 27 291 153 210 99 143 269 330 67 323 148 160 153 154 196 195 202 200 222 231 181 198 220 172 203 181 166 175 147 185 184 198 211 214 219 211 250 336 282 267 211 189 152 145 132 128 175 209 229 238 167 206 206 221 221
57 36 36 34 30 26 11 302 118 131 112 96 79 50 1 90 74 76 97 66 96 228 318 345 178 202 228 41 126 177 192 154 341 32 312 16 316 247 187 222 174 190 99 171 124 169 197 236 202 205 178 285 196 219 211 201 212 120 119 98 282 186 152 232 208 218 210 206 223 242 264 236 162 200 145 144 137 196 203 219 224 113 174 203 206 223 218
46 58 44 35 18 8 17 5 350 173 135 112 102 121 200 116 125 124 108 118 103 286 324 309 17 337 336 287 284 278 316 328 354 85 74 173 312 360 34 348 333 82 39 85 218 201 192 222 204 210 211 183 211 203 244 241 212 160 159 178 192 187 183 201 198 174 67 83 213 224 252 243 159 137 152 169 177 208 213 78 34 131 195 192 202 205 207
42 44 38 38 49 31 353 4 7 16 158 136 115 101 27 341 104 106 120 124 105 314 310 282 261 261 270 259 234 214 18 258 32 354 205 147 247 57 173 187 299 12 173 164 211 199 194 252 208 210 216 179 221 174 221 211 238 237 163 182 203 174 197 207 224 183 185 191 200 216 224 16 135 148 183 201 209 151 154 149 216 208 146 181 201 214 212
27 40 45 32 21 53 39 8 1 6 15 148 99 79 70 293 106 127 111 95 120 195 247 297 326 281 274 274 279 322 47 55 284 132 339 328 322 267 282 4 307 274 272 156 131 295 263 235 167 189 224 239 228 211 198 228 230 205 201 154 242 157 211 195 215 188 201 203 218 214 202 178 183 179 183 184 212 186 194 171 178 157 239 158 168 214 218
11 19 25 41 42 11 14 23 2 336 305 211 101 97 177 171 8 66 88 47 333 294 250 281 288 278 279 268 253 112 180 178 254 299 41 9 300 297 276 261 280 257 292 202 227 222 217 178 240 203 264 218 192 227 233 223 249 161 198 205 226 223 194 83 316 250 244 271 268 297 285 264 259 270 336 198 200 199 150 134 207 248 193 172 189 211 215
9 1 9 10 22 34 11 347 344 322 307 264 117 95 18 185 166 74 31 78 87 314 291 212 112 255 223 297 108 230 242 251 236 180 81 131 265 274 271 236 212 326 284 300 34 29 298 281 235 210 242 217 186 225 214 231 234 178 195 234 239 222 184 208 218 298 182 249 239 237 239 269 292 266 267 291 284 241 213 112 180 226 205 202 239 240 230
341 343 346 350 353 342 47 243 279 309 329 303 144 100 95 33 45 119 106 78 355 82 286 299 235 250 42 219 179 230 231 240 95 198 209 226 225 232 241 220 100 197 266 292 2 351 53 322 316 287 244 236 176 249 205 231 253 150 230 227 168 256 157 197 219 209 194 244 248 254 230 220 248 232 235 258 263 206 261 265 227 180 171 178 248 232 219
312 321 318 323 329 327 317 334 317 260 276 284 239 138 159 207 200 82 83 68 83 92 288 274 302 8 206 219 222 232 175 174 204 215 216 224 231 238 255 282 274 269 283 321 356 319 299 281 273 285 280 278 172 237 228 214 235 186 206 219 189 185 144 209 175 220 243 263 281 275 355 266 239 253 275 279 285 282 286 307 325 78 125 210 358 238 222
288 288 298 298 298 303 305 295 307 304 248 227 289 277 171 235 159 148 146 163 91 323 233 265 292 316 304 267 259 244 215 216 214 221 229 229 233 242 248 247 247 254 256 266 249 275 287 259 269 259 242 256 224 239 233 239 217 222 230 235 133 120 192 199 176 218 240 230 240 211 230 245 272 266 264 259 232 191 218 320 306 248 203 204 166 330 344
282 274 274 279 281 284 286 287 284 294 300 291 190 197 189 163 204 194 162 141 144 213 254 269 260 242 324 293 264 227 235 222 222 227 229 228 230 235 241 245 241 241 228 231 253 228 236 245 246 247 255 270 277 265 279 262 214 237 224 215 182 195 198 178 196 199 232 231 56 134 224 239 212 211 224 229 227 189 199 210 217 224 212 179 165 166 154
292 283 277 272 272 276 275 279 280 280 294 35 107 75 4 257 216 203 193 185 152 211 257 267 296 318 263 250 42 355 277 236 233 227 228 228 222 225 231 236 235 231 231 224 239 242 236 240 245 239 231 188 234 246 215 239 232 232 223 201 197 212 188 187 206 216 240 203 210 185 181 225 232 226 220 225 211 193 216 225 226 222 191 189 193 203 172
287 285 280 277 275 269 270 272 273 274 265 95 71 56 352 303 224 200 200 181 157 140 247 280 278 264 198 281 255 245 254 248 244 236 235 230 221 219 223 230 236 228 229 226 217 236 230 245 246 251 245 215 282 272 251 240 240 238 231 210 203 211 186 192 210 207 235 196 201 199 213 223 211 206 212 219 212 198 208 223 224 205 196 190 206 235 314
280 273 271 268 264 265 265 266 267 265 229 106 93 110 146 277 250 189 189 182 149 112 228 255 259 300 296 247 253 250 243 237 236 239 237 231 227 222 222 220 229 209 217 220 220 229 220 230 228 236 230 203 199 254 258 252 248 246 227 192 201 203 203 213 214 222 230 174 204 212 269 239 240 258 252 239 240 203 226 261 207 182 179 181 194 173 154
276 270 267 264 262 261 263 262 257 254 200 162 192 186 175 206 196 149 161 150 114 86 196 286 290 281 267 284 213 216 214 221 223 226 228 208 227 217 220 207 221 207 211 221 224 228 226 230 237 238 238 204 199 250 239 245 247 246 179 191 201 202 206 215 220 235 225 193 176 272 267 261 243 209 226 223 232 214 207 204 140 135 136 110 67 75 87
287 281 276 272 271 267 265 262 255 249 198 209 223 239 234 161 138 145 135 109 72 188 166 203 228 290 277 265 321 302 187 157 195 197 238 203 227 202 219 205 214 215 204 221 206 228 209 219 221 239 226 122 206 225 235 237 239 244 206 191 193 199 204 211 216 227 194 180 177 217 235 231 231 231 241 282 270 235 182 132 123 107 107 106 98 90 80
277 274 274 270 267 264 261 260 259 258 258 245 245 227 226 180 155 150 148 120 109 174 156 199 244 220 249 9 298 259 105 264 246 162 237 200 197 193 209 202 199 216 184 211 209 227 214 219 221 236 231 220 157 244 241 238 238 239 206 212 189 186 192 189 207 211 192 127 6 231 265 273 296 324 326 262 290 48 116 117 130 121 123 128 136 133 130
278 280 279 278 274 270 263 258 254 235 223 230 248 258 191 195 173 164 157 131 94 219 184 236 228 265 267 251 250 268 134 220 250 197 225 226 152 201 199 211 181 213 196 184 216 215 218 220 196 222 224 166 187 222 234 247 246 220 200 195 202 141 94 166 246 185 123 344 23 289 290 311 301 257 230 224 199 169 151 171 171 151 152 165 150 154 157
278 278 279 279 279 271 273 262 225 189 212 215 212 218 198 206 179 168 176 155 146 161 199 218 197 227 192 253 261 283 152 229 230 213 219 187 195 200 197 194 214 207 184 184 216 199 217 169 188 222 177 205 218 201 228 232 238 200 203 191 199 184 187 184 166 130 360 69 63 20 315 258 228 250 269 254 186 176 179 155 163 150 156 148 158 155 134
281 285 288 286 301 71 230 233 211 200 214 176 185 116 90 77 49 63 33 10 313 348 240 221 236 223 201 246 275 246 99 262 150 228 195 199 214 184 192 204 214 156 190 207 201 210 207 167 216 219 214 216 216 213 189 75 45 235 243 244 137 341 36 52 101 110 89 53 65 11 286 247 257 251 208 219 201 171 149 184 182 168 175 180 172 171 172
293 294 320 82 86 203 244 223 211 205 165 147 121 74 349 19 118 164 204 221 207 186 233 216 243 230 150 213 233 145 253 240 180 236 235 204 214 216 185 207 205 176 201 197 210 166 147 189 207 213 224 211 223 81 83 67 66 15 339 345 346 354 0 17 355 134 127 14 279 240 247 269 249 233 202 217 191 195 215 243 214 293 94 129 146 139 131
326 79 75 168 140 202 216 209 266 143 117 120 58 104 133 190 138 205 200 189 199 214 190 209 231 207 222 236 250 240 257 308 302 266 252 192 214 217 185 198 186 187 227 204 217 152 209 187 197 198 224 189 212 171 118 100 48 11 339 332 340 332 345 335 341 265 211 195 147 124 162 212 237 255 231 209 105 36 22 53 79 86 130 132 136 140 133
83 143 174 150 205 215 236 324 83 142 125 120 329 122 168 184 193 234 111 193 241 222 167 231 212 224 215 227 239 251 189 211 237 249 262 268 224 239 175 218 178 184 206 211 197 163 198 196 195 195 220 200 204 87 95 99 117 4 334 311 322 311 327 308 314 320 300 293 263 284 256 244 248 250 224 188 161 136 78 51 59 88 105 119 124 132 138
198 128 78 179 239 230 232 182 48 46 88 88 52 356 101 220 223 216 145 248 230 249 61 286 324 283 242 224 208 241 155 344 287 306 277 262 262 278 195 203 140 191 210 212 159 155 187 196 186 199 209 155 62 39 36 66 53 353 331 313 305 300 299 323 20 346 344 40 53 50 7 357 28 41 97 129 127 123 112 105 97 100 104 112 116 109 111
188 157 183 189 193 180 4 25 65 71 16 264 145 216 196 201 67 334 195 206 236 326 303 360 272 295 285 356 299 358 287 205 249 249 244 247 208 221 230 212 303 214 217 196 128 164 139 209 179 213 144 21 18 17 12 15 10 352 323 328 317 311 324 338 62 35 31 73 88 75 52 52 49 41 42 98 107 112 115 112 102 90 94 92 98 107 111
243 266 204 32 52 354 81 48 347 99 102 15 60 269 111 194 202 164 240 169 50 180 261 73 265 325 268 213 255 205 231 307 255 231 229 249 351 64 225 214 188 217 190 70 152 124 188 192 207 212 33 15 20 5 9 350 343 326 325 329 320 310 323 67 79 66 51 71 71 72 73 68 56 49 52 85 101 87 73 81 94 99 97 95 91 86 89
118 112 80 354 54 308 41 35 317 52 32 43 119 202 96 324 284 41 289 254 360 297 13 22 351 28 311 5 340 299 234 221 217 239 251 263 280 234 195 223 205 308 30 188 142 188 191 160 12 31 343 21 360 9 348 354 332 339 331 335 331 349 81 102 88 85 74 64 72 77 76 78 82 66 57 60 83 100 95 78 83 94 97 97 92 87 88
117 35 50 40 44 284 43 325 340 109 169 250 25 208 203 210 280 206 255 352 143 263 336 334 318 301 269 294 277 244 241 276 95 216 250 64 260 252 218 248 354 360 173 186 204 35 333 227 82 43 18 356 8 348 352 341 346 325 320 335 349 14 42 68 75 83 80 78 85 89 82 87 81 80 71 66 59 65 94 102 106 103 101 100 99 95 90
69 138 89 95 51 344 89 133 347 40 341 109 244 191 255 264 267 267 297 6 280 295 296 302 297 277 272 241 251 280 162 236 253 229 198 199 245 258 260 313 52 41 57 159 179 207 190 54 352 15 4 353 351 350 344 336 339 342 3 344 353 21 39 54 66 82 87 92 81 79 80 78 77 84 81 74 69 69 70 82 84 100 105 98 95 97 93
57 14 73 104 90 295 71 91 324 208 192 259 236 239 249 272 270 273 280 282 270 278 289 288 264 246 250 265 229 240 209 219 250 245 152 185 220 269 351 253 221 198 195 207 216 165 46 22 14 354 354 357 345 350 347 348 347 2 342 351 11 39 35 58 72 81 86 85 91 88 80 90 95 92 97 86 71 69 60 44 45 48 73 88 87 87 89
97 270 79 70 66 58 54 299 290 305 235 208 252 262 269 283 291 279 266 248 284 335 305 304 296 222 229 227 231 267 263 235 276 280 196 272 12 18 318 310 276 24 7 306 11 26 347 20 345 5 344 347 354 346 348 356 359 1 360 351 2 26 54 69 64 67 72 81 84 87 84 82 89 89 85 88 83 56 44 41 60 66 80 84 82 85 92
101 75 86 147 147 66 58 335 21 304 263 237 247 281 283 278 265 274 293 331 303 271 274 254 267 310 269 181 196 246 257 293 242 258 35 18 111 199 263 258 224 248 62 10 334 8 1 334 5 1 360 1 359 353 352 356 5 11 10 13 356 9 55 68 80 71 70 72 83 88 85 88 92 94 93 84 80 69 52 48 53 55 43 64 74 73 73
60 32 24 37 51 23 302 260 44 317 284 307 325 297 275 273 283 273 41 322 275 298 285 238 220 248 271 294 256 218 250 309 102 324 63 57 30 327 279 256 358 332 344 348 332 330 352 334 347 9 10 3 8 1 7 7 18 22 16 11 14 46 55 72 79 79 81 84 86 83 89 84 77 81 80 80 88 98 77 58 52 59 52 37 60 73 74
39 95 114 262 124 233 350 48 319 291 324 323 336 315 327 310 307 311 12 326 314 293 209 212 198 215 262 277 323 198 350 4 59 41 57 65 355 297 328 319 40 1 356 358 342 351 349 351 4 2 356 2 12 11 8 21 34 33 27 44 58 63 66 68 76 83 86 89 94 95 88 84 87 92 103 114 114 95 76 59 46 52 64 57 50 70 75
46 45 349 336 79 121 185 256 276 233 248 281 299 271 339 287 315 308 330 316 297 262 305 348 318 259 224 216 276 292 301 47 67 83 60 56 14 335 354 339 349 352 327 333 1 358 1 4 15 9 356 352 354 357 14 26 36 43 42 44 57 62 69 72 76 80 86 81 77 83 88 89 92 98 101 89 81 71 63 54 37 51 65 64 65 68 77